Time,TemperatureF,DewpointF,PressureIn,WindDirection,WindDirectionDegrees,WindSpeedMPH,WindSpeedGustMPH,Humidity,HourlyPrecipIn,Conditions,Clouds,dailyrainin,SoftwareType,DateUTC
2013-05-02 00:05:00,23.9,1.9,30.33,East,95,6.0,11.2,38,0.00,,,-99.99,FreeWX 2.04,2013-05-02 06:05:00,
2013-05-02 00:15:00,23.4,1.6,30.33,East,93,5.0,12.1,38,0.00,,,-99.99,FreeWX 2.04,2013-05-02 06:15:00,
2013-05-02 00:25:00,23.5,1.8,30.36,East,94,6.0,9.6,38,0.00,,,-99.99,FreeWX 2.04,2013-05-02 06:25:00,
2013-05-02 00:35:00,23.2,1.4,30.36,East,94,6.0,11.2,38,0.00,,,-99.99,FreeWX 2.04,2013-05-02 06:35:00,
2013-05-02 00:45:00,23.2,1.4,30.36,East,91,7.0,11.2,38,0.00,,,-99.99,FreeWX 2.04,2013-05-02 06:45:00,
2013-05-02 00:55:00,23.0,0.1,30.36,East,94,6.0,11.0,36,0.00,,,-99.99,FreeWX 2.04,2013-05-02 06:55:00,
2013-05-02 01:05:00,23.0,0.1,30.36,East,93,6.0,11.0,36,0.00,,,-99.99,FreeWX 2.04,2013-05-02 07:05:00,
2013-05-02 01:15:00,23.0,0.7,30.36,ESE,102,6.0,11.2,37,0.00,,,-99.99,FreeWX 2.04,2013-05-02 07:15:00,
2013-05-02 01:25:00,22.8,0.0,30.36,East,95,6.0,11.2,36,0.00,,,-99.99,FreeWX 2.04,2013-05-02 07:25:00,
2013-05-02 01:35:00,22.5,-0.4,30.36,East,92,7.0,11.0,36,0.00,,,-99.99,FreeWX 2.04,2013-05-02 07:35:00,
2013-05-02 01:45:00,22.6,0.3,30.36,East,95,7.0,13.0,37,0.00,,,-99.99,FreeWX 2.04,2013-05-02 07:45:00,
2013-05-02 01:55:00,22.3,0.0,30.36,East,91,6.0,11.6,37,0.00,,,-99.99,FreeWX 2.04,2013-05-02 07:55:00,
2013-05-02 02:05:00,22.8,-0.8,30.36,East,99,6.0,10.5,35,0.00,,,-99.99,FreeWX 2.04,2013-05-02 08:05:00,
2013-05-02 02:15:00,23.2,-0.9,30.36,East,95,6.0,11.0,34,0.00,,,-99.99,FreeWX 2.04,2013-05-02 08:15:00,
2013-05-02 02:25:00,22.6,-0.8,30.36,East,96,6.0,9.2,35,0.00,,,-99.99,FreeWX 2.04,2013-05-02 08:25:00,
2013-05-02 02:35:00,22.1,-0.8,30.36,East,89,6.0,10.1,36,0.00,,,-99.99,FreeWX 2.04,2013-05-02 08:35:00,
2013-05-02 02:45:00,21.7,-0.4,30.36,East,88,6.0,8.3,37,0.00,,,-99.99,FreeWX 2.04,2013-05-02 08:45:00,
2013-05-02 02:55:00,21.9,-0.4,30.36,East,94,6.0,9.6,37,0.00,,,-99.99,FreeWX 2.04,2013-05-02 08:55:00,
2013-05-02 03:05:00,21.6,-0.6,30.36,East,94,6.0,10.1,37,0.00,,,-99.99,FreeWX 2.04,2013-05-02 09:05:00,
2013-05-02 03:15:00,21.0,0.0,30.36,East,91,6.0,8.3,39,0.00,,,-99.99,FreeWX 2.04,2013-05-02 09:15:00,
2013-05-02 03:25:00,20.8,0.9,30.36,East,90,6.0,10.5,41,0.00,,,-99.99,FreeWX 2.04,2013-05-02 09:25:00,
2013-05-02 03:35:00,20.7,0.7,30.36,East,86,6.0,9.2,41,0.00,,,-99.99,FreeWX 2.04,2013-05-02 09:35:00,
2013-05-02 03:45:00,21.0,1.0,30.36,East,86,6.0,10.1,41,0.00,,,-99.99,FreeWX 2.04,2013-05-02 09:45:00,
2013-05-02 03:55:00,21.2,1.2,30.36,East,85,6.0,13.0,41,0.00,,,-99.99,FreeWX 2.04,2013-05-02 09:55:00,
2013-05-02 04:05:00,20.8,0.3,30.36,East,90,6.0,11.0,40,0.00,,,-99.99,FreeWX 2.04,2013-05-02 10:05:00,
2013-05-02 04:15:00,20.8,0.9,30.36,East,93,6.0,9.6,41,0.00,,,-99.99,FreeWX 2.04,2013-05-02 10:15:00,
2013-05-02 04:25:00,20.7,0.7,30.36,East,93,6.0,11.0,41,0.00,,,-99.99,FreeWX 2.04,2013-05-02 10:25:00,
2013-05-02 04:35:00,20.7,0.7,30.36,East,85,6.0,9.2,41,0.00,,,-99.99,FreeWX 2.04,2013-05-02 10:35:00,
2013-05-02 04:45:00,20.5,1.0,30.36,East,87,6.0,9.6,42,0.00,,,-99.99,FreeWX 2.04,2013-05-02 10:45:00,
2013-05-02 04:55:00,20.3,1.4,30.36,East,87,6.0,9.6,43,0.00,,,-99.99,FreeWX 2.04,2013-05-02 10:55:00,
2013-05-02 05:05:00,20.7,1.2,30.39,East,91,6.0,9.6,42,0.00,,,-99.99,FreeWX 2.04,2013-05-02 11:05:00,
2013-05-02 05:15:00,20.3,0.9,30.39,East,88,6.0,9.6,42,0.00,,,-99.99,FreeWX 2.04,2013-05-02 11:15:00,
2013-05-02 05:25:00,20.5,1.0,30.39,East,86,6.0,8.7,42,0.00,,,-99.99,FreeWX 2.04,2013-05-02 11:25:00,
2013-05-02 05:35:00,20.5,0.5,30.39,East,90,6.0,10.5,41,0.00,,,-99.99,FreeWX 2.04,2013-05-02 11:35:00,
2013-05-02 05:45:00,20.3,0.9,30.39,East,91,6.0,9.2,42,0.00,,,-99.99,FreeWX 2.04,2013-05-02 11:45:00,
2013-05-02 05:55:00,20.3,0.9,30.39,East,88,6.0,8.7,42,0.00,,,-99.99,FreeWX 2.04,2013-05-02 11:55:00,
2013-05-02 06:05:00,20.3,0.3,30.39,East,87,5.0,10.5,41,0.00,,,-99.99,FreeWX 2.04,2013-05-02 12:05:00,
2013-05-02 06:15:00,20.5,1.0,30.39,East,91,6.0,9.6,42,0.00,,,-99.99,FreeWX 2.04,2013-05-02 12:15:00,
2013-05-02 06:25:00,20.5,1.0,30.39,East,91,6.0,9.6,42,0.00,,,-99.99,FreeWX 2.04,2013-05-02 12:25:00,
2013-05-02 06:35:00,20.8,0.3,30.39,East,92,6.0,9.6,40,0.00,,,-99.99,FreeWX 2.04,2013-05-02 12:35:00,
2013-05-02 06:45:00,20.8,-0.2,30.39,East,87,6.0,9.6,39,0.00,,,-99.99,FreeWX 2.04,2013-05-02 12:45:00,
2013-05-02 06:55:00,20.5,0.5,30.39,East,88,5.0,8.7,41,0.00,,,-99.99,FreeWX 2.04,2013-05-02 12:55:00,
2013-05-02 07:05:00,22.1,-0.2,30.39,East,87,6.0,9.2,37,0.00,,,-99.99,FreeWX 2.04,2013-05-02 13:05:00,
2013-05-02 07:15:00,23.0,0.1,30.39,East,94,5.0,9.2,36,0.00,,,-99.99,FreeWX 2.04,2013-05-02 13:15:00,
2013-05-02 07:25:00,24.1,-0.2,30.39,East,92,6.0,8.3,34,0.00,,,-99.99,FreeWX 2.04,2013-05-02 13:25:00,
2013-05-02 07:35:00,25.3,0.3,30.39,East,90,5.0,8.7,33,0.00,,,-99.99,FreeWX 2.04,2013-05-02 13:35:00,
2013-05-02 07:45:00,27.3,1.4,30.39,East,95,6.0,10.1,32,0.00,,,-99.99,FreeWX 2.04,2013-05-02 13:45:00,
2013-05-02 07:55:00,28.8,1.9,30.39,East,94,5.0,9.2,31,0.00,,,-99.99,FreeWX 2.04,2013-05-02 13:55:00,
2013-05-02 08:05:00,29.7,0.7,30.39,East,93,5.0,9.2,28,0.00,,,-99.99,FreeWX 2.04,2013-05-02 14:05:00,
2013-05-02 08:15:00,31.5,-0.2,30.39,East,91,4.0,7.4,25,0.00,,,-99.99,FreeWX 2.04,2013-05-02 14:15:00,
2013-05-02 08:25:00,32.9,-1.7,30.39,East,95,5.0,7.8,22,0.00,,,-99.99,FreeWX 2.04,2013-05-02 14:25:00,
2013-05-02 08:35:00,34.3,-0.6,30.39,East,99,5.0,7.4,22,0.00,,,-99.99,FreeWX 2.04,2013-05-02 14:35:00,
2013-05-02 08:45:00,36.0,-2.2,30.39,East,99,5.0,7.8,19,0.00,,,-99.99,FreeWX 2.04,2013-05-02 14:45:00,
2013-05-02 08:55:00,38.1,-4.0,30.39,ESE,108,4.0,6.7,16,0.00,,,-99.99,FreeWX 2.04,2013-05-02 14:55:00,
2013-05-02 09:05:00,39.6,-2.9,30.39,ESE,116,3.0,5.8,16,0.00,,,-99.99,FreeWX 2.04,2013-05-02 15:05:00,
2013-05-02 09:15:00,41.2,-1.5,30.39,SE,137,2.0,4.9,16,0.00,,,-99.99,FreeWX 2.04,2013-05-02 15:15:00,
2013-05-02 09:25:00,41.7,-1.1,30.39,North,-999,0.0,3.1,16,0.00,,,-99.99,FreeWX 2.04,2013-05-02 15:25:00,
2013-05-02 09:35:00,42.1,-2.2,30.39,North,-999,0.0,0.0,15,0.00,,,-99.99,FreeWX 2.04,2013-05-02 15:35:00,
2013-05-02 09:45:00,42.4,-1.8,30.39,WSW,238,2.0,6.3,15,0.00,,,-99.99,FreeWX 2.04,2013-05-02 15:45:00,
2013-05-02 09:55:00,43.5,-0.9,30.39,SW,225,2.0,5.8,15,0.00,,,-99.99,FreeWX 2.04,2013-05-02 15:55:00,
2013-05-02 10:05:00,43.7,-0.9,30.39,North,-999,0.0,5.4,15,0.00,,,-99.99,FreeWX 2.04,2013-05-02 16:05:00,
2013-05-02 10:15:00,45.1,0.3,30.39,SW,229,2.0,6.3,15,0.00,,,-99.99,FreeWX 2.04,2013-05-02 16:15:00,
2013-05-02 10:25:00,45.0,0.1,30.39,SSW,204,2.0,5.8,15,0.00,,,-99.99,FreeWX 2.04,2013-05-02 16:25:00,
2013-05-02 10:35:00,45.9,-0.6,30.39,South,181,1.0,5.4,14,0.00,,,-99.99,FreeWX 2.04,2013-05-02 16:35:00,
2013-05-02 10:45:00,46.2,-0.2,30.39,North,-999,0.0,5.4,14,0.00,,,-99.99,FreeWX 2.04,2013-05-02 16:45:00,
2013-05-02 10:55:00,45.5,-0.9,30.39,SSW,203,2.0,6.3,14,0.00,,,-99.99,FreeWX 2.04,2013-05-02 16:55:00,
2013-05-02 11:05:00,44.2,-0.4,30.39,SW,216,2.0,6.3,15,0.00,,,-99.99,FreeWX 2.04,2013-05-02 17:05:00,
2013-05-02 11:15:00,46.0,-0.4,30.39,SW,235,1.0,7.4,14,0.00,,,-99.99,FreeWX 2.04,2013-05-02 17:15:00,
2013-05-02 11:25:00,45.3,0.5,30.39,ESE,121,2.0,7.8,15,0.00,,,-99.99,FreeWX 2.04,2013-05-02 17:25:00,
2013-05-02 11:35:00,42.3,-2.0,30.39,NNW,334,4.0,9.6,15,0.00,,,-99.99,FreeWX 2.04,2013-05-02 17:35:00,
2013-05-02 11:46:00,41.5,-1.3,30.39,North,352,5.0,8.7,16,0.00,,,-99.99,FreeWX 2.04,2013-05-02 17:46:00,
2013-05-02 11:56:00,42.4,-1.8,30.36,North,6,4.0,7.8,15,0.00,,,-99.99,FreeWX 2.04,2013-05-02 17:56:00,
2013-05-02 12:06:00,44.1,-0.6,30.36,NNE,31,4.0,8.7,15,0.00,,,-99.99,FreeWX 2.04,2013-05-02 18:06:00,
2013-05-02 12:16:00,43.2,-1.3,30.36,NNE,25,4.0,8.3,15,0.00,,,-99.99,FreeWX 2.04,2013-05-02 18:16:00,
2013-05-02 12:26:00,44.4,-0.2,30.36,NE,54,4.0,6.9,15,0.00,,,-99.99,FreeWX 2.04,2013-05-02 18:26:00,
2013-05-02 12:36:00,44.6,-0.2,30.36,NNE,19,4.0,8.3,15,0.00,,,-99.99,FreeWX 2.04,2013-05-02 18:36:00,
2013-05-02 12:46:00,45.7,-0.8,30.36,NW,317,3.0,6.9,14,0.00,,,-99.99,FreeWX 2.04,2013-05-02 18:46:00,
2013-05-02 12:56:00,46.4,-0.2,30.36,WNW,292,4.0,7.4,14,0.00,,,-99.99,FreeWX 2.04,2013-05-02 18:56:00,
2013-05-02 13:06:00,46.2,-0.2,30.36,North,349,5.0,11.0,14,0.00,,,-99.99,FreeWX 2.04,2013-05-02 19:06:00,
2013-05-02 13:16:00,46.2,-0.2,30.36,North,8,5.0,9.6,14,0.00,,,-99.99,FreeWX 2.04,2013-05-02 19:16:00,
2013-05-02 13:26:00,47.5,0.7,30.36,North,353,4.0,8.3,14,0.00,,,-99.99,FreeWX 2.04,2013-05-02 19:26:00,
2013-05-02 13:36:00,48.4,1.4,30.33,NNE,24,4.0,8.7,14,0.00,,,-99.99,FreeWX 2.04,2013-05-02 19:36:00,
2013-05-02 13:46:00,48.2,1.2,30.33,North,357,6.0,12.5,14,0.00,,,-99.99,FreeWX 2.04,2013-05-02 19:46:00,
2013-05-02 13:56:00,48.7,1.8,30.33,NNE,22,3.0,9.6,14,0.00,,,-99.99,FreeWX 2.04,2013-05-02 19:56:00,
2013-05-02 14:06:00,50.5,3.2,30.33,NNW,345,4.0,11.6,14,0.00,,,-99.99,FreeWX 2.04,2013-05-02 20:06:00,
2013-05-02 14:16:00,48.9,1.9,30.33,NNW,337,4.0,8.3,14,0.00,,,-99.99,FreeWX 2.04,2013-05-02 20:16:00,
2013-05-02 14:26:00,50.4,3.0,30.33,NNW,332,4.0,12.5,14,0.00,,,-99.99,FreeWX 2.04,2013-05-02 20:26:00,
2013-05-02 14:36:00,51.3,2.1,30.33,WSW,238,2.0,7.4,13,0.00,,,-99.99,FreeWX 2.04,2013-05-02 20:36:00,
2013-05-02 14:46:00,50.7,3.2,30.33,WNW,289,6.0,10.5,14,0.00,,,-99.99,FreeWX 2.04,2013-05-02 20:46:00,
2013-05-02 14:56:00,52.0,2.7,30.30,WNW,285,1.0,7.4,13,0.00,,,-99.99,FreeWX 2.04,2013-05-02 20:56:00,
2013-05-02 15:06:00,51.1,1.9,30.30,WNW,303,4.0,8.7,13,0.00,,,-99.99,FreeWX 2.04,2013-05-02 21:06:00,
2013-05-02 15:16:00,52.0,2.7,30.30,WNW,291,5.0,11.0,13,0.00,,,-99.99,FreeWX 2.04,2013-05-02 21:16:00,
2013-05-02 15:26:00,52.5,3.2,30.30,WSW,242,4.0,8.7,13,0.00,,,-99.99,FreeWX 2.04,2013-05-02 21:26:00,
2013-05-02 15:36:00,52.5,3.2,30.30,West,268,4.0,10.5,13,0.00,,,-99.99,FreeWX 2.04,2013-05-02 21:36:00,
2013-05-02 15:46:00,52.2,2.8,30.30,NW,318,6.0,10.1,13,0.00,,,-99.99,FreeWX 2.04,2013-05-02 21:46:00,
2013-05-02 15:56:00,52.9,3.4,30.30,NW,306,6.0,10.1,13,0.00,,,-99.99,FreeWX 2.04,2013-05-02 21:56:00,
2013-05-02 16:06:00,53.6,3.9,30.30,West,262,5.0,9.2,13,0.00,,,-99.99,FreeWX 2.04,2013-05-02 22:06:00,
2013-05-02 16:16:00,53.1,3.6,30.30,West,269,6.0,11.0,13,0.00,,,-99.99,FreeWX 2.04,2013-05-02 22:16:00,
2013-05-02 16:26:00,55.8,3.9,30.27,WSW,247,5.0,10.5,12,0.00,,,-99.99,FreeWX 2.04,2013-05-02 22:26:00,
2013-05-02 16:36:00,54.7,3.0,30.27,WSW,240,2.0,8.7,12,0.00,,,-99.99,FreeWX 2.04,2013-05-02 22:36:00,
2013-05-02 16:46:00,55.2,3.6,30.27,WSW,257,3.0,8.3,12,0.00,,,-99.99,FreeWX 2.04,2013-05-02 22:46:00,
2013-05-02 16:56:00,54.1,4.5,30.27,WSW,258,4.0,9.6,13,0.00,,,-99.99,FreeWX 2.04,2013-05-02 22:56:00,
2013-05-02 17:06:00,55.6,3.7,30.27,SW,236,4.0,8.3,12,0.00,,,-99.99,FreeWX 2.04,2013-05-02 23:06:00,
2013-05-02 17:16:00,56.7,4.6,30.27,SSW,213,3.0,9.2,12,0.00,,,-99.99,FreeWX 2.04,2013-05-02 23:16:00,
2013-05-02 17:26:00,55.4,3.7,30.27,SW,215,3.0,8.7,12,0.00,,,-99.99,FreeWX 2.04,2013-05-02 23:26:00,
2013-05-02 17:36:00,52.9,3.4,30.27,WSW,251,4.0,11.0,13,0.00,,,-99.99,FreeWX 2.04,2013-05-02 23:36:00,
2013-05-02 17:46:00,54.1,4.5,30.27,WSW,239,3.0,8.3,13,0.00,,,-99.99,FreeWX 2.04,2013-05-02 23:46:00,
2013-05-02 17:56:00,52.7,3.2,30.27,WSW,248,4.0,7.4,13,0.00,,,-99.99,FreeWX 2.04,2013-05-02 23:56:00,
2013-05-02 18:06:00,52.3,3.0,30.24,WSW,241,3.0,7.8,13,0.00,,,-99.99,FreeWX 2.04,2013-05-03 00:06:00,
2013-05-02 18:16:00,52.3,3.0,30.24,WSW,256,3.0,10.1,13,0.00,,,-99.99,FreeWX 2.04,2013-05-03 00:16:00,
2013-05-02 18:26:00,52.5,3.2,30.24,WSW,243,2.0,6.7,13,0.00,,,-99.99,FreeWX 2.04,2013-05-03 00:26:00,
2013-05-02 18:36:00,52.7,3.2,30.24,West,267,3.0,7.4,13,0.00,,,-99.99,FreeWX 2.04,2013-05-03 00:36:00,
2013-05-02 18:46:00,51.3,2.1,30.24,WNW,283,4.0,8.7,13,0.00,,,-99.99,FreeWX 2.04,2013-05-03 00:46:00,
2013-05-02 18:56:00,50.7,3.2,30.24,WNW,284,3.0,6.7,14,0.00,,,-99.99,FreeWX 2.04,2013-05-03 00:56:00,
2013-05-02 19:06:00,50.9,1.8,30.24,WNW,290,2.0,7.8,13,0.00,,,-99.99,FreeWX 2.04,2013-05-03 01:06:00,
2013-05-02 19:16:00,52.7,3.2,30.24,West,267,3.0,8.3,13,0.00,,,-99.99,FreeWX 2.04,2013-05-03 01:16:00,
2013-05-02 19:26:00,50.7,3.2,30.24,West,273,3.0,8.7,14,0.00,,,-99.99,FreeWX 2.04,2013-05-03 01:26:00,
2013-05-02 19:36:00,49.3,2.1,30.24,West,261,2.0,6.3,14,0.00,,,-99.99,FreeWX 2.04,2013-05-03 01:36:00,
2013-05-02 19:46:00,48.4,1.4,30.24,North,-999,0.0,4.0,14,0.00,,,-99.99,FreeWX 2.04,2013-05-03 01:46:00,
2013-05-02 19:56:00,47.7,0.9,30.24,North,-999,0.0,0.0,14,0.00,,,-99.99,FreeWX 2.04,2013-05-03 01:56:00,
2013-05-02 20:06:00,46.8,0.1,30.24,North,-999,0.0,0.0,14,0.00,,,-99.99,FreeWX 2.04,2013-05-03 02:06:00,
2013-05-02 20:16:00,45.0,0.1,30.24,North,-999,0.0,4.5,15,0.00,,,-99.99,FreeWX 2.04,2013-05-03 02:16:00,
2013-05-02 20:26:00,43.3,-1.1,30.24,East,101,4.0,6.3,15,0.00,,,-99.99,FreeWX 2.04,2013-05-03 02:26:00,
2013-05-02 20:36:00,41.5,-1.3,30.24,ESE,119,5.0,6.9,16,0.00,,,-99.99,FreeWX 2.04,2013-05-03 02:36:00,
2013-05-02 20:46:00,39.7,-2.7,30.24,ESE,111,5.0,7.4,16,0.00,,,-99.99,FreeWX 2.04,2013-05-03 02:46:00,
2013-05-02 20:57:00,38.3,-3.8,30.24,ESE,121,5.0,7.4,16,0.00,,,-99.99,FreeWX 2.04,2013-05-03 02:57:00,
2013-05-02 21:07:00,37.4,-1.1,30.24,East,98,4.0,7.4,19,0.00,,,-99.99,FreeWX 2.04,2013-05-03 03:07:00,
2013-05-02 21:17:00,37.2,-1.1,30.24,East,97,4.0,6.9,19,0.00,,,-99.99,FreeWX 2.04,2013-05-03 03:17:00,
2013-05-02 21:27:00,36.7,-1.7,30.24,East,88,5.0,7.8,19,0.00,,,-99.99,FreeWX 2.04,2013-05-03 03:27:00,
2013-05-02 21:37:00,36.0,-2.2,30.24,East,89,4.0,6.9,19,0.00,,,-99.99,FreeWX 2.04,2013-05-03 03:37:00,
2013-05-02 21:47:00,35.2,0.3,30.24,East,88,5.0,7.8,22,0.00,,,-99.99,FreeWX 2.04,2013-05-03 03:47:00,
2013-05-02 21:57:00,34.9,0.0,30.24,East,86,5.0,7.4,22,0.00,,,-99.99,FreeWX 2.04,2013-05-03 03:57:00,
2013-05-02 22:07:00,35.2,0.3,30.24,East,88,5.0,10.5,22,0.00,,,-99.99,FreeWX 2.04,2013-05-03 04:07:00,
2013-05-02 22:17:00,35.1,0.1,30.24,East,99,6.0,10.5,22,0.00,,,-99.99,FreeWX 2.04,2013-05-03 04:17:00,
2013-05-02 22:27:00,34.3,-0.6,30.24,East,93,5.0,11.0,22,0.00,,,-99.99,FreeWX 2.04,2013-05-03 04:27:00,
2013-05-02 22:37:00,34.7,-0.2,30.24,East,94,6.0,10.5,22,0.00,,,-99.99,FreeWX 2.04,2013-05-03 04:37:00,
2013-05-02 22:47:00,34.3,-0.6,30.24,East,95,6.0,11.0,22,0.00,,,-99.99,FreeWX 2.04,2013-05-03 04:47:00,
2013-05-02 22:57:00,34.5,-0.4,30.24,East,98,6.0,10.1,22,0.00,,,-99.99,FreeWX 2.04,2013-05-03 04:57:00,
2013-05-02 23:07:00,34.0,-0.8,30.21,East,95,6.0,9.2,22,0.00,,,-99.99,FreeWX 2.04,2013-05-03 05:07:00,
2013-05-02 23:17:00,34.2,-0.6,30.21,East,91,6.0,11.0,22,0.00,,,-99.99,FreeWX 2.04,2013-05-03 05:17:00,
2013-05-02 23:27:00,34.3,-0.6,30.21,East,99,6.0,10.1,22,0.00,,,-99.99,FreeWX 2.04,2013-05-03 05:27:00,
2013-05-02 23:37:00,34.3,-0.6,30.21,East,98,6.0,10.1,22,0.00,,,-99.99,FreeWX 2.04,2013-05-03 05:37:00,
2013-05-02 23:47:00,34.3,-0.6,30.21,East,100,7.0,11.0,22,0.00,,,-99.99,FreeWX 2.04,2013-05-03 05:47:00,
2013-05-02 23:57:00,34.2,-0.6,30.21,East,99,6.0,11.0,22,0.00,,,-99.99,FreeWX 2.04,2013-05-03 05:57:00,